| time (UTC) | temp F | wind direction | speed knots | gust knots | rain 1hr in | rain 24hr in | rain mn in | humidity % | barometer mb |
| 20260506180006 | 39 | 104 | 0.0 | 2.6 | 0.02 | 0.04 | 0.02 | 58 | 1024.1 |
| 20260506174502 | 38 | 123 | 0.0 | 3.5 | 0.01 | 0.03 | 0.01 | 56 | 1024.1 |
| 20260506173123 | 36 | 77 | 0.0 | 2.6 | 0.00 | 0.02 | 0.00 | 59 | 1024.2 |
| 20260506171601 | 34 | 215 | 0.0 | 3.5 | 0.00 | 0.02 | 0.00 | 67 | 1024.2 |
| 20260506170051 | 32 | 167 | 0.0 | 2.6 | 0.00 | 0.03 | 0.00 | 67 | 1024.0 |
| 20260506164547 | 31 | 76 | 0.9 | 3.5 | 0.00 | 0.03 | 0.00 | 74 | 1024.0 |
| 20260506163049 | 30 | 117 | 0.0 | 2.6 | 0.00 | 0.03 | 0.00 | 77 | 1023.9 |
| 20260506161552 | 28 | 98 | 0.0 | 4.3 | 0.00 | 0.03 | 0.00 | 78 | 1024.0 |
| 20260506160038 | 28 | 45 | 1.7 | 5.2 | 0.00 | 0.03 | 0.00 | 79 | 1023.5 |
| 20260506154535 | 28 | 142 | 0.9 | 2.6 | 0.00 | 0.03 | 0.00 | 80 | 1023.6 |
| 20260506153032 | 27 | 72 | 0.0 | 2.6 | 0.00 | 0.03 | 0.00 | 82 | 1023.5 |
| 20260506151530 | 26 | 72 | 0.0 | 1.7 | 0.00 | 0.03 | 0.00 | 83 | 1023.4 |
| 20260506150030 | 26 | 72 | 0.0 | 2.6 | 0.00 | 0.03 | 0.00 | 85 | 1023.2 |
| 20260506144526 | 25 | 72 | 0.0 | 0.0 | 0.00 | 0.03 | 0.00 | 87 | 1023.2 |
| 20260506143022 | 25 | 72 | 0.0 | 0.0 | 0.00 | 0.03 | 0.00 | 88 | 1023.2 |
| 20260506141519 | 24 | 72 | 0.0 | 0.0 | 0.00 | 0.03 | 0.00 | 89 | 1023.0 |
| 20260506140019 | 24 | 72 | 0.0 | 0.0 | 0.00 | 0.03 | 0.00 | 90 | 1022.7 |
| 20260506134530 | 23 | 72 | 0.0 | 0.0 | 0.00 | 0.03 | 0.00 | 90 | 1022.7 |
| 20260506133013 | 23 | 71 | 0.0 | 0.0 | 0.00 | 0.03 | 0.00 | 91 | 1022.2 |
| 20260506131513 | 23 | 72 | 0.0 | 0.0 | 0.00 | 0.03 | 0.00 | 91 | 1022.1 |
| 20260506130009 | 23 | 72 | 0.0 | 0.0 | 0.00 | 0.03 | 0.00 | 91 | 1021.7 |
| 20260506124512 | 22 | 72 | 0.0 | 0.0 | 0.00 | 0.03 | 0.00 | 91 | 1021.4 |
| 20260506123006 | 22 | 72 | 0.0 | 0.0 | 0.00 | 0.03 | 0.00 | 91 | 1021.1 |
| 20260506121508 | 23 | 72 | 0.0 | 0.0 | 0.00 | 0.03 | 0.00 | 91 | 1020.9 |
| 20260506120008 | 23 | 71 | 0.0 | 0.0 | 0.00 | 0.03 | 0.00 | 91 | 1020.9 |
| 20260506114600 | 23 | 71 | 0.0 | 0.0 | 0.00 | 0.03 | 0.00 | 91 | 1020.6 |
| 20260506113059 | 23 | 72 | 0.0 | 0.0 | 0.00 | 0.03 | 0.00 | 91 | 1020.4 |
| 20260506111612 | 23 | 72 | 0.0 | 0.0 | 0.00 | 0.03 | 0.00 | 91 | 1020.2 |
| 20260506110055 | 24 | 72 | 0.0 | 0.0 | 0.00 | 0.03 | 0.00 | 91 | 1020.0 |
| 20260506104554 | 24 | 72 | 0.0 | 0.0 | 0.00 | 0.03 | 0.00 | 91 | 1019.9 |
| 20260506103055 | 24 | 72 | 0.0 | 0.0 | 0.00 | 0.03 | 0.00 | 91 | 1019.7 |
| 20260506101553 | 24 | 72 | 0.0 | 0.0 | 0.00 | 0.03 | 0.00 | 91 | 1019.6 |
| 20260506100151 | 24 | 72 | 0.0 | 0.0 | 0.00 | 0.03 | 0.00 | 91 | 1019.6 |
| 20260506094550 | 24 | 72 | 0.0 | 0.0 | 0.00 | 0.04 | 0.00 | 91 | 1019.4 |
| 20260506093054 | 24 | 72 | 0.0 | 0.0 | 0.00 | 0.04 | 0.00 | 91 | 1019.4 |
| 20260506091549 | 24 | 72 | 0.0 | 0.0 | 0.00 | 0.04 | 0.00 | 91 | 1019.4 |
| 20260506090048 | 24 | 72 | 0.0 | 0.0 | 0.00 | 0.05 | 0.00 | 91 | 1019.4 |
| 20260506084547 | 24 | 72 | 0.0 | 0.0 | 0.00 | 0.05 | 0.00 | 91 | 1019.6 |
| 20260506083107 | 24 | 72 | 0.0 | 0.0 | 0.00 | 0.05 | 0.00 | 91 | 1019.4 |
| 20260506081549 | 24 | 72 | 0.0 | 0.0 | 0.00 | 0.05 | 0.00 | 92 | 1019.4 |
| 20260506073043 | 25 | 72 | 0.0 | 0.0 | 0.00 | 0.08 | 0.00 | 92 | 1019.3 |
| 20260506071543 | 25 | 72 | 0.0 | 1.7 | 0.00 | 0.08 | 0.00 | 92 | 1019.3 |
| 20260506061538 | 25 | 72 | 0.0 | 0.0 | 0.00 | 0.08 | 0.00 | 92 | 1018.7 |
| 20260506044523 | 25 | 72 | 0.0 | 0.0 | 0.00 | 0.09 | 0.08 | 91 | 1017.7 |
| 20260506043022 | 25 | 71 | 0.0 | 0.0 | 0.00 | 0.09 | 0.08 | 91 | 1017.8 |
| 20260506041521 | 25 | 72 | 0.0 | 0.0 | 0.00 | 0.09 | 0.08 | 91 | 1017.6 |
| 20260506040025 | 25 | 72 | 0.0 | 0.0 | 0.00 | 0.09 | 0.08 | 91 | 1017.2 |
| 20260506034517 | 25 | 71 | 0.0 | 0.0 | 0.00 | 0.09 | 0.08 | 91 | 1017.1 |
| 20260506033016 | 25 | 71 | 0.0 | 0.0 | 0.00 | 0.09 | 0.08 | 91 | 1016.9 |
| 20260506031521 | 25 | 71 | 0.0 | 0.0 | 0.00 | 0.09 | 0.08 | 91 | 1016.8 |
| 20260506030014 | 25 | 71 | 0.0 | 0.0 | 0.00 | 0.09 | 0.08 | 91 | 1016.6 |
| 20260506024526 | 25 | 71 | 0.0 | 0.0 | 0.00 | 0.09 | 0.08 | 90 | 1016.3 |
| 20260506023111 | 25 | 71 | 0.0 | 0.0 | 0.00 | 0.09 | 0.08 | 90 | 1015.7 |
| 20260506021510 | 26 | 72 | 0.0 | 0.0 | 0.00 | 0.09 | 0.08 | 90 | 1015.3 |
| 20260506020005 | 26 | 72 | 0.0 | 0.0 | 0.00 | 0.13 | 0.08 | 90 | 1015.0 |
| 20260506014508 | 26 | 72 | 0.0 | 2.6 | 0.00 | 0.13 | 0.08 | 89 | 1014.9 |
| 20260506013001 | 26 | 72 | 0.0 | 0.0 | 0.00 | 0.13 | 0.08 | 90 | 1014.4 |
| 20260506011626 | 26 | 72 | 0.0 | 0.0 | 0.00 | 0.13 | 0.08 | 90 | 1014.1 |
| 20260506010058 | 26 | 72 | 0.0 | 1.7 | 0.00 | 0.13 | 0.08 | 90 | 1014.0 |
| 20260506004605 | 26 | 72 | 0.0 | 4.3 | 0.00 | 0.27 | 0.08 | 89 | 1013.9 |
| 20260506003055 | 27 | 72 | 0.0 | 1.7 | 0.00 | 0.27 | 0.08 | 89 | 1013.9 |
| 20260506001653 | 27 | 72 | 0.0 | 1.7 | 0.00 | 0.27 | 0.08 | 89 | 1013.5 |
| 20260506000114 | 27 | 72 | 0.0 | 3.5 | 0.00 | 0.33 | 0.08 | 89 | 1012.9 |
| 20260505234553 | 27 | 72 | 0.0 | 0.0 | 0.00 | 0.33 | 0.08 | 89 | 1012.8 |
| 20260505233055 | 27 | 72 | 0.0 | 0.0 | 0.00 | 0.33 | 0.08 | 89 | 1012.7 |
| 20260505231554 | 27 | 72 | 0.0 | 0.0 | 0.00 | 0.33 | 0.08 | 90 | 1012.6 |
| 20260505224545 | 27 | 72 | 0.0 | 1.7 | 0.00 | 0.33 | 0.08 | 89 | 1012.3 |
| 20260505223043 | 27 | 71 | 0.0 | 1.7 | 0.01 | 0.33 | 0.08 | 89 | 1012.2 |
| 20260505221546 | 28 | 71 | 0.0 | 2.6 | 0.01 | 0.33 | 0.08 | 88 | 1012.1 |
| 20260505220040 | 28 | 71 | 0.0 | 2.6 | 0.01 | 0.33 | 0.08 | 88 | 1011.4 |
| 20260505214536 | 30 | 71 | 0.9 | 3.5 | 0.01 | 0.33 | 0.08 | 88 | 1011.2 |
| 20260505213035 | 31 | 71 | 0.0 | 0.0 | 0.00 | 0.32 | 0.07 | 88 | 1010.7 |
| 20260505211537 | 31 | 71 | 0.0 | 1.7 | 0.00 | 0.32 | 0.07 | 89 | 1010.5 |
| 20260505210033 | 31 | 71 | 0.0 | 0.0 | 0.00 | 0.32 | 0.07 | 90 | 1010.5 |
| 20260505204543 | 31 | 71 | 0.0 | 0.0 | 0.00 | 0.32 | 0.07 | 90 | 1010.8 |
| 20260505203034 | 31 | 71 | 0.0 | 0.0 | 0.00 | 0.32 | 0.07 | 90 | 1010.9 |
| 20260505201532 | 30 | 71 | 0.0 | 0.0 | 0.00 | 0.32 | 0.07 | 90 | 1011.0 |
| 20260505200031 | 30 | 71 | 0.0 | 0.0 | 0.00 | 0.35 | 0.07 | 90 | 1011.1 |
| 20260505194539 | 30 | 71 | 0.0 | 2.6 | 0.00 | 0.35 | 0.07 | 89 | 1011.5 |
| 20260505193030 | 30 | 71 | 0.0 | 0.0 | 0.00 | 0.35 | 0.07 | 89 | 1011.3 |
| 20260505191529 | 31 | 71 | 0.0 | 2.6 | 0.01 | 0.35 | 0.07 | 89 | 1011.3 |
| 20260505190036 | 31 | 71 | 0.0 | 0.9 | 0.01 | 0.35 | 0.07 | 89 | 1011.5 |
| 20260505184533 | 31 | 71 | 0.0 | 2.6 | 0.01 | 0.35 | 0.07 | 89 | 1011.4 |
| 20260505183028 | 31 | 71 | 0.0 | 4.3 | 0.01 | 0.35 | 0.07 | 89 | 1011.3 |
| 20260505181528 | 31 | 71 | 0.0 | 5.2 | 0.00 | 0.34 | 0.06 | 89 | 1011.1 |